STARLINK-1165 (45059 NORAD) Tracking and Keplerian Element Data

This shows tracking and keplerian element data for the satellite.

Feedback or suggestion? Click here.




ElementValue
Catalog45059
NameSTARLINK-1165
Epoch Orbit401
Epoch Day52.91667824
Epoch Year2020
RAAN120.9199
Inclination52.9969
Eccentricity0.0001425
Argument of Perigee64.322
Mean Anonmoly164.7835
Mean Motion15.51201277
Decay Rate-0.00093587
L11 45059U 20006R 20052.91667824 -.00093587 00000-0 -15843-2 0 9990
L22 45059 52.9969 120.9199 0001425 64.3220 164.7835 15.51201277 4015

Live tracking and technical data element details for STARLINK-1165 (NORAD 45059). STARLINK-1165 can be tracked NOW for your location showing map with azimuth and elevation plus other details from your city location.

Track the satellite on the map from your city or location and see movement details for azimuth, elevation, latitude, longitude, range, height, and movement on the map or in text.







IsCatalogInMostPopularTable: catalog: 45059, numindb: 7
Update: records affected: 1



GetName: 45059 STARLINK-1165

Hit Count: updated at: Wed, 26 Feb 2020 15:36:42 GMT